Location: Apeadero de Los Molinos-Guadarrama
(40.7091°N, 4.0689°W)
Time: 04:20:31
(UTC+00:00)

ISS - Pass Details

Date: 05 October 2021
Orbit: 417 x 423 km, 51.6° (Epoch: 20 October)

Event Time Altitude Azimuth Distance (km) Brightness Sun altitude
Rises 18:19:23 0° 309° (NW) 2,364 0.9 -6.1°
Reaches altitude 10° 18:21:31 10° 314° (NW) 1,498 -0.2 -6.5°
Maximum altitude 18:24:49 52° 32° (NNE) 526 -3.5 -7.1°
Drops below altitude 10° 18:28:06 10° 111° (ESE) 1,494 -1.5 -7.7°
Enters shadow 18:28:19 - 111° (ESE) 1,581 -1.4 -7.8°
